Showing default

OPS 6073 (DMSP 4A F2), 2669

Orbit data source: Space-Track

OPS 6073 (DMSP 4A F2), 2669 is a payload satellite owned by USAF SSD (US) in SSO that was launched on Wed, 08 Feb 1967 UTC via a THOR BURNER 2 launch vehicle from the Air Force Western Test Range (AFWTR). Payload-class satellites include a variety of spacecraft equipped with specific instruments for various scientific and technological missions. These include communications satellites like Starlink; space stations such as the ISS; scientific satellites like the Hubble; Earth observation satellites from companies like Planet Labs, Umbra, and HawkEye 360; GPS; miniature CubeSats for education and research; and military/defense satellites.

Loading next visibility...
Identifier
2669, 1967-010A
Orbit
SSO
Country
Flag of USUS
Related business
Manufacturer
RCA/East Windsor
Mission
Non-operational spacecraft
Bus & Motor
DMSP BLOCK 4A, Unknown motor
Mass
79 kg wet, 79 kg dry
Launch date (UTC)
1967-02-08 (59 years ago)
Launch vehicle
THOR BURNER 2
Launch site
Air Force Western Test Range (AFWTR)
Object type
Payload
Rocket body
Debris
Shape & HBR
Unknown
Radar Cross Section
Medium (>0.1 m² and <1 m²)

Expand to show TLE details & history
Last TLE update: 1 day ago

TLE from 1 day ago
0 OPS 6073 (DMSP 4A F2)
1 02669U 67010A   25347.93509561  .00000228  00000-0  10966-3 0  9993
2 02669  99.0979 337.8406 0048563 195.7803 164.1866 14.28141227 57891
Epoch: 2025-12-13T22:26Z
TLE epoch observation values (Epoch: 2025-12-13T22:26:32.260Z)
Latitude
-0.00002°
Longitude
-81.64905°
Altitude
834.413 km
Speed
7.418 km/s
True Right ascension
22h 31m 21s
True Declination
0° 00' 00"
Sunlit
Object was in daylight at epoch
Visualization orbit readout
Latitude
Unknown
Longitude
Unknown
Altitude
Unknown
Speed
Unknown
Apparent Right ascension
Unknown
Apparent Declination
Unknown
Sunlit
N/A
Visualization observer readout
Local Sidereal Time
21:03:49
Azimuth
Unknown
Elevation
Unknown
Doppler factor
Unknown
Orbital elements
Apogee altitude
829.953 km
Perigee altitude
760.282 km
Semi-major axis
7,173.254 km
Eccentricity
0.00486
Inclination
99.0979°
RAAN
337.8406°
Arg. of periapsis
195.7803°
True anomaly
164.33737°
Mean anomaly
164.1866°
Eccentric anomaly
164.26207°
Mean motion
3.57247 °/min
Orbital period
100.77 mins
BSTAR
0.00010966
Loading maneuver chart data...
Computing Atmospheric mass density...
Loading historical data...
Loading historical data...
Loading historical data...
Loading historical data...
Loading historical data...
Loading historical data...
Loading historical data...
Other satellites on launch #10 in the year 1967 (1967-02-08 UTC)

Documentation

Showing up to 5 results
|